TimeMDT,TemperatureF,Dew PointF,Humidity,Sea Level PressureIn,VisibilityMPH,Wind Direction,Wind SpeedMPH,Gust SpeedMPH,PrecipitationIn,Events,Conditions,WindDirDegrees,DateUTC
12:53 AM,59.0,55.9,90,30.04,10.0,Calm,Calm,-,N/A,,Clear,0,2013-09-04 06:53:00
1:53 AM,59.0,55.9,90,30.02,10.0,Calm,Calm,-,N/A,,Clear,0,2013-09-04 07:53:00
2:53 AM,57.0,54.0,89,30.02,10.0,Calm,Calm,-,N/A,,Clear,0,2013-09-04 08:53:00
3:53 AM,57.9,55.9,93,30.03,10.0,Calm,Calm,-,N/A,,Clear,0,2013-09-04 09:53:00
4:53 AM,60.1,57.0,90,30.04,10.0,Calm,Calm,-,N/A,,Clear,0,2013-09-04 10:53:00
5:53 AM,60.1,57.9,93,30.07,10.0,Calm,Calm,-,N/A,,Clear,0,2013-09-04 11:53:00
6:53 AM,63.0,59.0,87,30.09,10.0,ENE,10.4,-,N/A,,Clear,70,2013-09-04 12:53:00
7:53 AM,64.9,60.1,84,30.10,10.0,East,10.4,-,N/A,,Overcast,90,2013-09-04 13:53:00
8:53 AM,68.0,61.0,78,30.11,10.0,East,10.4,-,N/A,,Overcast,90,2013-09-04 14:53:00
9:53 AM,73.9,63.0,68,30.11,10.0,ESE,10.4,-,N/A,,Scattered Clouds,110,2013-09-04 15:53:00
10:53 AM,75.9,62.1,62,30.11,10.0,ESE,12.7,-,N/A,,Scattered Clouds,120,2013-09-04 16:53:00
11:53 AM,81.0,63.0,54,30.10,10.0,East,11.5,-,N/A,,Overcast,100,2013-09-04 17:53:00
12:53 PM,82.0,63.0,52,30.09,10.0,East,15.0,19.6,N/A,,Mostly Cloudy,90,2013-09-04 18:53:00
1:53 PM,84.9,61.0,44,30.07,10.0,East,17.3,-,N/A,,Clear,80,2013-09-04 19:53:00
2:53 PM,87.1,62.1,43,30.07,10.0,East,16.1,21.9,N/A,,Clear,100,2013-09-04 20:53:00
3:53 PM,86.0,62.1,44,30.06,10.0,East,13.8,-,N/A,,Clear,80,2013-09-04 21:53:00
4:53 PM,86.0,61.0,43,30.05,10.0,East,12.7,21.9,N/A,,Clear,100,2013-09-04 22:53:00
5:53 PM,84.0,61.0,46,30.04,10.0,East,16.1,-,N/A,,Clear,80,2013-09-04 23:53:00
6:53 PM,80.1,61.0,52,30.05,10.0,East,10.4,-,N/A,,Clear,90,2013-09-05 00:53:00
7:53 PM,75.0,62.1,64,30.07,10.0,East,11.5,-,N/A,,Clear,80,2013-09-05 01:53:00
8:53 PM,73.0,60.1,64,30.09,10.0,East,10.4,-,N/A,,Clear,90,2013-09-05 02:53:00
9:53 PM,70.0,60.1,71,30.09,10.0,East,11.5,-,N/A,,Clear,90,2013-09-05 03:53:00
10:53 PM,70.0,60.1,71,30.09,10.0,East,12.7,-,N/A,,Clear,90,2013-09-05 04:53:00
11:53 PM,69.1,60.1,73,30.07,10.0,ESE,13.8,-,N/A,,Clear,110,2013-09-05 05:53:00